Location: Ab? ar R?sh Ba?r?
(24.1861°N, 32.8847°E)
Time: 13:55:25
(UTC+00:00)

Hubble Space Telescope - Visible Passes

Search period start: 27 February 2024 00:00
Search period end: 08 March 2024 00:00
Orbit: 516 x 519 km, 28.5° (Epoch: 26 February)

Date Brightness Start Highest point End Pass type
(mag) Time Alt. Az. Time Alt. Az. Time Alt. Az.
27 Feb 2.0 17:38:21 10° WNW 17:41:10 35° NW 17:41:10 35° NW visible
28 Feb 1.3 17:20:59 10° WNW 17:24:49 44° N 17:24:49 44° N visible
29 Feb 1.3 17:03:36 10° WNW 17:07:28 45° N 17:08:27 37° NE visible
01 Mar 1.2 16:46:11 10° WNW 16:50:04 47° N 16:52:05 24° ENE visible
01 Mar 4.1 18:26:54 10° WNW 18:27:00 11° WNW 18:27:00 11° WNW visible
02 Mar 1.2 16:28:46 10° WNW 16:32:40 49° N 16:35:44 15° E visible
02 Mar 3.4 18:09:28 10° WNW 18:10:39 19° W 18:10:39 19° W visible
03 Mar 1.1 16:11:19 10° WNW 16:15:14 52° N 16:19:10 10° E visible
03 Mar 2.4 17:52:03 10° W 17:54:20 32° W 17:54:20 32° W visible
04 Mar 1.4 17:34:37 10° W 17:38:04 48° SW 17:38:04 48° SW visible
05 Mar 1.5 17:17:11 10° W 17:21:01 43° SSW 17:21:51 37° SSE visible
06 Mar 1.8 16:59:47 10° W 17:03:30 36° SSW 17:05:42 20° SSE visible
07 Mar 2.2 16:42:24 10° W 16:45:57 31° SSW 16:49:31 10° SE visible
